FW4330 Toide JP current weather conditions

sailwx.info

Air temperature 32.8° C
Dewpoint 21.9° C

Last reported at 2020-Aug-06 09:05 UTC.
Time now 2020-Aug-06 12:53 UTC

Location: N 36°41' E 136°59'.
View on Google Maps.

See reports from other nearby stations

  
Tides and Currents Weather Stations Pressure Air Temp Water Temp Dewpoint Dewpoint Depression Visibility Wind Speed Wind Dir Waves Ship Positions
date/time (UTC)wind fromknots sea level pressurealtimeterstation pressurevisibilityair tempwater tempwave heightnotes
2020-Aug-06 09:05 32.8
2020-Aug-06 08:35 225 0 gusting 1 33.3
2020-Aug-06 08:05 270 33.3
2020-Aug-06 07:35 270 0 gusting 1 34.4
2020-Aug-06 06:05 270 0 gusting 1 36.7
2020-Aug-06 05:35 180 37.2
2020-Aug-06 05:05 270 37.2
2020-Aug-06 04:35 270 37.8
2020-Aug-06 04:05 270 37.8
2020-Aug-06 03:35 270 38.3
2020-Aug-06 03:05 225 38.9
2020-Aug-06 02:35 36.7
2020-Aug-06 01:35 225 0 gusting 1 37.2
2020-Aug-06 00:35 090 0 gusting 1 35.0
2020-Aug-05 22:35 270 27.8
2020-Aug-05 22:05 270 26.7
2020-Aug-05 21:35 270 25.0
2020-Aug-05 21:05 270 23.9
2020-Aug-05 20:35 270 23.9
2020-Aug-05 20:05 270 23.3
2020-Aug-05 19:35 270 23.9
2020-Aug-05 18:35 270 23.9
2020-Aug-05 18:05 270 24.4
2020-Aug-05 17:35 270 24.4
2020-Aug-05 17:05 090 25.0
2020-Aug-05 16:35 270 25.6
2020-Aug-05 16:05 270 25.6
2020-Aug-05 15:35 270 25.6
2020-Aug-05 15:05 270 25.6
2020-Aug-05 14:35 270 25.6
2020-Aug-05 14:05 270 26.7
2020-Aug-05 13:35 270 27.2
2020-Aug-05 12:35 270 27.8
2020-Aug-05 12:05 270 28.3
2020-Aug-05 09:35 270 0 gusting 1 30.0
2020-Aug-05 09:05 270 0 gusting 1 30.6
2020-Aug-05 08:35 270 1 gusting 2 31.1
2020-Aug-05 08:05 270 31.1
2020-Aug-05 07:35 270 32.2
2020-Aug-05 07:05 270 2 gusting 3 32.2
2020-Aug-05 06:35 270 1 gusting 2 33.3
2020-Aug-05 06:05 270 1 gusting 2 33.9
2020-Aug-05 05:35 270 0 gusting 1 34.4
2020-Aug-05 05:05 315 1 gusting 1 33.9
2020-Aug-05 04:35 34.4
2020-Aug-05 04:05 225 0 gusting 1 36.1
2020-Aug-05 03:35 270 0 gusting 3 36.7
2020-Aug-05 03:05 315 0 gusting 1 36.1
2020-Aug-05 02:35 180 37.2
2020-Aug-05 02:05 270 0 gusting 1 35.6
2020-Aug-05 01:35 36.1
2020-Aug-05 01:05 270 35.0
2020-Aug-05 00:35 270 0 gusting 1 33.9
2020-Aug-05 00:05 32.2
2020-Aug-04 23:35 270 0 gusting 1 32.2
2020-Aug-04 23:05 270 32.8
2020-Aug-04 22:35 270 28.9
2020-Aug-04 22:05 225 26.7
2020-Aug-04 21:35 270 24.4
2020-Aug-04 21:05 270 23.3
2020-Aug-04 20:35 270 22.8
2020-Aug-04 20:05 270 22.8
2020-Aug-04 19:35 270 22.8
2020-Aug-04 19:05 270 23.3
2020-Aug-04 18:35 090 23.3
2020-Aug-04 18:05 270 23.3
2020-Aug-04 17:35 270 23.9
2020-Aug-04 17:05 270 23.9
2020-Aug-04 16:35 090 23.9
2020-Aug-04 16:05 270 24.4
2020-Aug-04 15:35 270 24.4
2020-Aug-04 15:05 270 25.0
2020-Aug-04 14:35 180 25.0
2020-Aug-04 14:05 225 25.6
2020-Aug-04 13:35 270 26.1
2020-Aug-04 13:05 270 26.7
2020-Aug-04 12:35 270 27.2
2020-Aug-04 12:05 270 27.2